Weather History for Pottstown, PA

Change the Weather History Date:

Saturday, October 19, 2013

  Actual Average (KRDG) Record (KRDG)
Temperature  
Mean Temperature 50 °F 53 °F  
Max Temperature 63 °F 63 °F 84 °F (1963)
Min Temperature 39 °F 42 °F 22 °F (1974)
Degree Days  
Heating Degree Days 14 13  
Month to date heating degree days 188  
Since 1 July heating degree days 267  
Cooling Degree Days 0 0  
Month to date cooling degree days 5  
Year to date cooling degree days 892  
Moisture  
Dew Point 46 °F    
Average Humidity 82    
Maximum Humidity 97    
Minimum Humidity 48    
Precipitation  
Precipitation 0.10 in 0.09 in 3.04 in (1996)
Month to date precipitation 2.24  
Year to date precipitation 35.54  
Sea Level Pressure  
Sea Level Pressure 29.90 in    
Wind  
Wind Speed 1 mph (SSW)    
Max Wind Speed 6 mph    
Max Gust Speed -    
Visibility 9 miles    
Events Rain    
T = Trace of Precipitation, MM = Missing Value Source: NWS Daily Summary

Daily Weather History Graph

Daily Weather History Graph

Search for Another Location

Airport:

Trip Planner

Search our weather history database for the weather conditions in past years. The results will help you decide how hot, cold, wet, or windy it might be!

Date:

Astronomy

Oct. 19, 2013 Rise Set
Actual Time 7:17 AM EDT 6:16 PM EDT
Civil Twilight 6:49 AM EDT 6:43 PM EDT
Nautical Twilight 6:18 AM EDT 7:15 PM EDT
Astronomical Twilight 5:46 AM EDT 7:46 PM EDT
Moon 6:42 PM EDT (10/19) 7:52 AM EDT (10/19)
Length of Visible Light 11h 53m
Length of Day
10h 58m
Waxing Gibbous, 99% of the Moon is Illuminated
Oct 19
Waxing Gibbous
Oct 26
Last Quarter
Nov 3
New
Nov 10
First Quarter
Nov 17
Full

Hourly Weather History & Observations

Time (EDT) Temp. Dew Point Humidity Pressure Visibility Wind Dir Wind Speed Gust Speed Precip Events Conditions
12:54 AM 42.1 °F 39.9 °F 92% 30.02 in 10.0 mi Calm Calm - N/A   Clear
1:54 AM 41.0 °F 39.0 °F 93% 30.01 in 10.0 mi Calm Calm - N/A   Clear
2:54 AM 39.9 °F 37.9 °F 93% 30.01 in 8.0 mi Calm Calm - N/A   Clear
3:54 AM 39.9 °F 39.0 °F 97% 30.00 in 9.0 mi Calm Calm - N/A   Clear
4:54 AM 39.0 °F 37.9 °F 96% 30.00 in 10.0 mi Calm Calm - N/A   Clear
5:54 AM 39.0 °F 37.9 °F 96% 29.99 in 9.0 mi Calm Calm - N/A   Clear
6:54 AM 39.0 °F 37.9 °F 96% 29.98 in 8.0 mi Calm Calm - N/A   Clear
7:54 AM 39.0 °F 37.9 °F 96% 29.99 in 5.0 mi Calm Calm - N/A   Clear
8:54 AM 43.0 °F 42.1 °F 97% 29.99 in 6.0 mi Calm Calm - N/A   Clear
9:54 AM 46.0 °F 44.1 °F 93% 30.01 in 10.0 mi Calm Calm - N/A   Clear
10:54 AM 52.0 °F 46.0 °F 80% 29.98 in 10.0 mi Calm Calm - N/A   Clear
11:54 AM 55.9 °F 48.0 °F 75% 29.95 in 10.0 mi South 4.6 mph - N/A   Clear
12:54 PM 60.1 °F 48.9 °F 67% 29.92 in 10.0 mi Variable 3.5 mph - N/A   Clear
1:54 PM 62.1 °F 42.1 °F 48% 29.90 in 10.0 mi South 5.8 mph - N/A   Clear
2:54 PM 62.1 °F 46.0 °F 56% 29.85 in 10.0 mi Variable 4.6 mph - N/A   Clear
3:54 PM 62.1 °F 45.0 °F 53% 29.83 in 10.0 mi South 4.6 mph - N/A   Partly Cloudy
4:54 PM 61.0 °F 46.0 °F 58% 29.84 in 10.0 mi South 5.8 mph - N/A   Overcast
5:54 PM 60.1 °F 48.0 °F 64% 29.81 in 10.0 mi South 3.5 mph - 0.00 in   Overcast
6:54 PM 59.0 °F 50.0 °F 72% 29.79 in 10.0 mi Variable 3.5 mph - N/A   Overcast
7:36 PM 59.0 °F 51.8 °F 77% 29.79 in 10.0 mi Variable 5.8 mph - N/A   Overcast
7:54 PM 59.0 °F 52.0 °F 78% 29.78 in 10.0 mi Calm Calm - N/A   Overcast
8:54 PM 59.0 °F 52.0 °F 78% 29.79 in 10.0 mi South 5.8 mph - N/A   Overcast
9:25 PM 55.4 °F 53.6 °F 94% 29.82 in 1.8 mi Variable 3.5 mph - 0.10 in Rain Rain
9:28 PM 55.4 °F 53.6 °F 94% 29.81 in 3.0 mi SW 3.5 mph - 0.10 in Rain Rain
9:54 PM 55.9 °F 52.0 °F 87% 29.80 in 10.0 mi Calm Calm - 0.10 in   Overcast
10:54 PM 55.0 °F 52.0 °F 89% 29.81 in 10.0 mi West 4.6 mph - N/A   Overcast
11:54 PM 52.0 °F 50.0 °F 93% 29.81 in 10.0 mi Calm Calm - N/A   Clear